DW3733 Luzzi (cosenza) IT current weather conditions

sailwx.info

Wind from 180 at 0 knots gusting 1

Air temperature 17.8° C
Dewpoint 13.3° C

Last reported at 2016-Sep-28 07:43 UTC.
Time now 2016-Sep-28 08:32 UTC

Location: N 39°27' E 016°16'.
View on Google Maps.

See reports from other nearby stations

  
Tides and Currents Weather Stations Pressure Air Temp Water Temp Dewpoint Dewpoint Depression Visibility Wind Speed Wind Dir Waves Ship Positions
date/time (UTC)wind fromknots sea level pressurealtimeterstation pressurevisibilityair tempwater tempwave heightnotes
2016-Sep-28 07:43 180 0 gusting 1 17.8
2016-Sep-28 07:33 315 17.2
2016-Sep-28 07:23 346 16.7
2016-Sep-28 07:13 16.1
2016-Sep-28 07:03 252 0 gusting 1 15.6
2016-Sep-28 06:53 029 0 gusting 1 15.0
2016-Sep-28 06:43 316 13.9
2016-Sep-28 06:33 315 13.3
2016-Sep-28 06:23 045 0 gusting 2 13.3
2016-Sep-28 06:13 061 12.8
2016-Sep-28 06:03 315 12.8
2016-Sep-28 05:53 270 12.2
2016-Sep-28 05:43 11.7
2016-Sep-28 05:33 270 11.1
2016-Sep-28 05:23 315 11.1
2016-Sep-28 05:13 270 10.6
2016-Sep-28 05:03 315 0 gusting 2 10.6
2016-Sep-28 04:53 315 10.6
2016-Sep-28 04:43 315 0 gusting 1 10.6
2016-Sep-28 04:33 315 10.6
2016-Sep-28 04:23 270 0 gusting 1 10.6
2016-Sep-28 04:13 315 10.6
2016-Sep-28 04:03 270 0 gusting 1 11.1
2016-Sep-28 03:53 270 11.1
2016-Sep-28 03:43 270 0 gusting 1 10.6
2016-Sep-28 03:33 270 0 gusting 1 11.1
2016-Sep-28 03:03 315 0 gusting 1 11.1
2016-Sep-28 02:53 315 11.1
2016-Sep-28 02:43 315 11.1
2016-Sep-28 02:33 282 11.1
2016-Sep-28 02:23 315 0 gusting 1 11.1
2016-Sep-28 02:13 288 0 gusting 1 11.7
2016-Sep-28 02:03 315 0 gusting 1 11.7
2016-Sep-28 01:53 279 0 gusting 1 11.7
2016-Sep-28 01:43 299 1 gusting 2 11.7
2016-Sep-28 01:33 306 0 gusting 2 12.2
2016-Sep-28 01:23 315 12.8
2016-Sep-28 01:13 295 0 gusting 1 13.3
2016-Sep-28 01:03 270 13.3
2016-Sep-28 00:53 270 0 gusting 1 13.9
2016-Sep-28 00:43 270 14.4
2016-Sep-28 00:33 315 1 gusting 2 14.4
2016-Sep-28 00:23 354 0 gusting 1 15.0
2016-Sep-28 00:13 15.0
2016-Sep-28 00:03 090 0 gusting 2 15.0
2016-Sep-27 23:53 353 0 gusting 4 15.0
2016-Sep-27 23:43 349 0 gusting 2 15.0
2016-Sep-27 23:33 333 1 gusting 2 15.0
2016-Sep-27 23:23 353 1 gusting 2 15.0
2016-Sep-27 23:13 358 1 gusting 4 15.0
2016-Sep-27 23:03 045 1 gusting 2 15.6
2016-Sep-27 22:53 287 15.6
2016-Sep-27 22:43 293 15.0
2016-Sep-27 22:33 270 15.0
2016-Sep-27 22:23 283 0 gusting 2 15.0
2016-Sep-27 22:13 315 0 gusting 2 15.6
2016-Sep-27 22:03 15.6
2016-Sep-27 21:53 270 15.6
2016-Sep-27 21:43 330 1 gusting 4 15.0
2016-Sep-27 21:33 315 15.0
2016-Sep-27 21:23 334 15.6
2016-Sep-27 21:13 225 0 gusting 2 15.6
2016-Sep-27 21:03 037 0 gusting 2 15.6
2016-Sep-27 20:53 315 15.6
2016-Sep-27 20:43 270 0 gusting 1 15.0
2016-Sep-27 20:33 270 0 gusting 1 15.0
2016-Sep-27 20:23 315 14.4
2016-Sep-27 20:13 315 0 gusting 1 15.0
2016-Sep-27 20:03 315 15.6
2016-Sep-27 19:53 315 1 gusting 2 15.6
2016-Sep-27 19:43 270 0 gusting 2 16.1
2016-Sep-27 19:33 315 0 gusting 2 16.7
2016-Sep-27 19:23 337 0 gusting 4 17.2
2016-Sep-27 19:13 270 0 gusting 2 16.7
2016-Sep-27 19:03 283 0 gusting 2 17.2
2016-Sep-27 18:53 012 0 gusting 2 16.7
2016-Sep-27 18:43 276 0 gusting 2 16.7
2016-Sep-27 18:33 240 0 gusting 2 17.8
2016-Sep-27 18:23 135 0 gusting 2 17.8
2016-Sep-27 18:13 282 0 gusting 2 17.8
2016-Sep-27 18:03 270 0 gusting 2 18.9
2016-Sep-27 17:53 045 1 gusting 2 19.4
2016-Sep-27 17:43 355 0 gusting 1 19.4
2016-Sep-27 17:33 315 19.4
2016-Sep-27 17:23 251 19.4
2016-Sep-27 17:13 19.4
2016-Sep-27 17:03 270 0 gusting 2 20.0
2016-Sep-27 16:53 270 1 gusting 2 21.1
2016-Sep-27 16:43 163 1 gusting 2 21.7
2016-Sep-27 16:33 214 0 gusting 2 21.7
2016-Sep-27 16:23 225 0 gusting 2 22.8
2016-Sep-27 16:13 198 0 gusting 5 22.8
2016-Sep-27 16:03 225 2 gusting 5 23.3
2016-Sep-27 15:53 236 0 gusting 4 23.3
2016-Sep-27 15:43 274 0 gusting 2 23.3
2016-Sep-27 15:33 282 0 gusting 5 23.3
2016-Sep-27 15:23 331 2 gusting 5 23.3
2016-Sep-27 15:13 225 0 gusting 7 23.3
2016-Sep-27 14:53 222 1 gusting 5 24.4
2016-Sep-27 14:43 315 1 gusting 6 24.4
2016-Sep-27 14:33 300 1 gusting 7 24.4
2016-Sep-27 14:23 202 3 gusting 7 24.4
2016-Sep-27 14:13 135 1 gusting 7 24.4
2016-Sep-27 14:03 225 1 gusting 5 23.9
2016-Sep-27 13:53 260 2 gusting 6 23.3
2016-Sep-27 13:43 254 4 gusting 6 23.9
2016-Sep-27 13:33 158 2 gusting 6 23.9
2016-Sep-27 13:23 182 2 gusting 6 23.9
2016-Sep-27 13:13 169 2 gusting 5 23.9
2016-Sep-27 13:03 186 2 gusting 6 23.9
2016-Sep-27 12:53 178 2 gusting 6 24.4
2016-Sep-27 12:43 189 4 gusting 6 24.4
2016-Sep-27 12:33 132 4 gusting 6 25.0
2016-Sep-27 12:23 153 2 gusting 10 25.6
2016-Sep-27 12:13 161 3 gusting 10 25.6
2016-Sep-27 12:03 225 2 gusting 8 25.6
2016-Sep-27 11:53 180 4 gusting 8 25.6
2016-Sep-27 11:43 206 4 gusting 8 25.0
2016-Sep-27 11:33 180 2 gusting 5 25.0
2016-Sep-27 11:23 180 1 gusting 6 25.0
2016-Sep-27 11:13 281 1 gusting 6 24.4
2016-Sep-27 11:03 142 1 gusting 5 24.4
2016-Sep-27 10:53 253 2 gusting 6 24.4
2016-Sep-27 10:43 277 2 gusting 6 24.4
2016-Sep-27 10:33 235 3 gusting 6 24.4
2016-Sep-27 10:23 225 1 gusting 6 23.9
2016-Sep-27 10:13 270 1 gusting 4 23.3
2016-Sep-27 10:03 135 2 gusting 5 23.3
2016-Sep-27 09:53 161 1 gusting 6 23.3
2016-Sep-27 09:43 180 1 gusting 4 23.3
2016-Sep-27 09:33 315 22.2
2016-Sep-27 09:23 247 0 gusting 5 21.7
2016-Sep-27 09:13 312 0 gusting 2 21.7
2016-Sep-27 09:03 219 1 gusting 5 21.7
2016-Sep-27 08:53 250 0 gusting 4 21.7
2016-Sep-27 08:43 209 1 gusting 4 21.1
2016-Sep-27 08:33 135 0 gusting 2 20.6
2016-Sep-27 08:23 257 0 gusting 2 20.6
2016-Sep-27 08:13 180 1 gusting 4 20.0
2016-Sep-27 08:03 204 1 gusting 2 19.4
2016-Sep-27 07:53 159 0 gusting 1 18.9
2016-Sep-27 07:43 207 18.9
2016-Sep-27 07:33 295 0 gusting 1 18.3
2016-Sep-27 07:23 270 0 gusting 1 17.2
2016-Sep-27 07:13 069 0 gusting 2 16.7
2016-Sep-27 07:03 345 0 gusting 2 16.1
2016-Sep-27 06:53 345 0 gusting 1 15.6
2016-Sep-27 06:43 15.6
2016-Sep-27 06:33 315 15.0
2016-Sep-27 06:23 017 0 gusting 2 14.4
2016-Sep-27 06:13 332 0 gusting 1 13.9
2016-Sep-27 06:03 338 0 gusting 2 13.3
2016-Sep-27 05:53 12.8
2016-Sep-27 05:43 022 0 gusting 2 12.8
2016-Sep-27 05:33 313 12.8
2016-Sep-27 05:23 316 0 gusting 1 12.8
2016-Sep-27 05:13 322 0 gusting 1 12.8
2016-Sep-27 05:03 001 0 gusting 1 12.8
2016-Sep-27 04:53 270 12.8
2016-Sep-27 04:43 315 12.2
2016-Sep-27 04:33 336 12.2
2016-Sep-27 04:23 315 11.7
2016-Sep-27 04:13 270 11.7
2016-Sep-27 04:03 315 0 gusting 1 11.7
2016-Sep-27 03:53 304 0 gusting 2 11.1
2016-Sep-27 03:43 313 0 gusting 2 11.1
2016-Sep-27 03:33 280 0 gusting 1 11.7
2016-Sep-27 03:23 315 11.7
2016-Sep-27 03:13 270 12.2
2016-Sep-27 03:03 315 11.7
2016-Sep-27 02:53 270 0 gusting 2 11.7
2016-Sep-27 02:43 272 0 gusting 1 11.7
2016-Sep-27 02:33 278 0 gusting 1 11.7
2016-Sep-27 02:23 270 11.7
2016-Sep-27 02:13 270 11.7
2016-Sep-27 02:03 270 11.7
2016-Sep-27 01:53 315 11.7
2016-Sep-27 01:43 270 0 gusting 1 11.7
2016-Sep-27 01:33 315 0 gusting 1 11.7
2016-Sep-27 01:23 315 11.7
2016-Sep-27 01:13 315 0 gusting 1 11.7
2016-Sep-27 01:03 299 0 gusting 0 12.2
2016-Sep-27 00:53 270 0 gusting 1 12.2
2016-Sep-27 00:43 270 0 gusting 1 12.2
2016-Sep-27 00:33 270 0 gusting 1 12.8
2016-Sep-27 00:23 315 0 gusting 0 12.8
2016-Sep-27 00:13 315 13.3
2016-Sep-27 00:03 270 13.3
2016-Sep-26 23:53 13.3
2016-Sep-26 23:43 299 13.3
2016-Sep-26 23:33 315 13.3
2016-Sep-26 23:23 315 0 gusting 1 13.3
2016-Sep-26 23:13 315 0 gusting 0 13.3
2016-Sep-26 23:03 315 0 gusting 1 13.3
2016-Sep-26 22:53 270 13.9
2016-Sep-26 22:43 297 0 gusting 2 13.9
2016-Sep-26 22:33 337 0 gusting 1 15.0
2016-Sep-26 22:23 270 0 gusting 2 15.0
2016-Sep-26 22:13 315 0 gusting 2 15.0
2016-Sep-26 22:03 315 15.0
2016-Sep-26 21:53 315 15.0
2016-Sep-26 21:43 315 0 gusting 1 15.0
2016-Sep-26 21:33 301 0 gusting 1 15.6
2016-Sep-26 21:23 315 0 gusting 2 15.6
2016-Sep-26 21:13 270 1 gusting 2 16.1
2016-Sep-26 21:03 018 0 gusting 2 16.7
2016-Sep-26 20:53 008 0 gusting 2 17.2
2016-Sep-26 20:43 041 17.2
2016-Sep-26 20:33 253 1 gusting 2 16.7
2016-Sep-26 20:13 270 0 gusting 1 16.1
2016-Sep-26 20:03 270 0 gusting 1 16.1
2016-Sep-26 19:53 315 0 gusting 2 16.1
2016-Sep-26 19:43 308 0 gusting 2 16.1
2016-Sep-26 19:33 315 16.7
2016-Sep-26 19:23 270 0 gusting 1 17.8
2016-Sep-26 19:13 270 17.2
2016-Sep-26 19:03 270 0 gusting 2 17.2
2016-Sep-26 18:53 270 1 gusting 4 17.8
2016-Sep-26 18:43 315 0 gusting 1 17.8
2016-Sep-26 18:33 286 18.3
2016-Sep-26 18:23 315 0 gusting 1 18.9
2016-Sep-26 18:13 270 0 gusting 0 18.9
2016-Sep-26 18:03 270 0 gusting 1 18.9
2016-Sep-26 17:53 270 0 gusting 1 18.9
2016-Sep-26 17:43 311 19.4
2016-Sep-26 17:33 315 0 gusting 1 19.4
2016-Sep-26 17:23 315 19.4
2016-Sep-26 17:13 20.0
2016-Sep-26 17:03 202 0 gusting 4 20.6
2016-Sep-26 16:53 328 20.6
2016-Sep-26 16:43 331 21.7
2016-Sep-26 16:33 286 0 gusting 2 21.7
2016-Sep-26 16:23 181 1 gusting 2 22.2
2016-Sep-26 16:13 225 0 gusting 2 23.3
2016-Sep-26 16:03 180 0 gusting 2 23.3
2016-Sep-26 15:53 252 0 gusting 4 23.3
2016-Sep-26 15:43 252 0 gusting 5 23.9
2016-Sep-26 15:33 225 2 gusting 5 24.4
2016-Sep-26 15:23 119 0 gusting 5 24.4
2016-Sep-26 15:13 191 0 gusting 4 24.4
2016-Sep-26 15:03 207 1 gusting 4 25.0
2016-Sep-26 14:53 335 1 gusting 5 25.0
2016-Sep-26 14:43 309 2 gusting 5 25.0
2016-Sep-26 14:33 196 1 gusting 6 25.0
2016-Sep-26 14:23 197 3 gusting 6 25.0
2016-Sep-26 14:13 180 2 gusting 5 25.6
2016-Sep-26 14:03 205 1 gusting 6 25.6
2016-Sep-26 13:53 192 2 gusting 6 25.6
2016-Sep-26 13:43 194 3 gusting 5 25.6
2016-Sep-26 13:33 225 0 gusting 5 25.6
2016-Sep-26 13:23 225 2 gusting 5 25.6
2016-Sep-26 13:13 243 0 gusting 6 25.6
2016-Sep-26 13:03 347 1 gusting 5 25.6
2016-Sep-26 12:53 213 1 gusting 5 25.6
2016-Sep-26 12:43 307 2 gusting 4 25.6
2016-Sep-26 12:33 217 0 gusting 2 25.6
2016-Sep-26 12:23 318 1 gusting 6 25.0
2016-Sep-26 12:13 225 0 gusting 2 25.0
2016-Sep-26 12:03 180 2 gusting 5 25.0
2016-Sep-26 11:53 191 0 gusting 4 25.0
2016-Sep-26 11:43 196 1 gusting 6 24.4
2016-Sep-26 11:33 303 2 gusting 6 23.9
2016-Sep-26 11:23 302 1 gusting 5 23.9
2016-Sep-26 11:13 243 0 gusting 6 23.3
2016-Sep-26 11:03 270 1 gusting 5 23.9
2016-Sep-26 10:53 193 0 gusting 5 23.3
2016-Sep-26 10:43 180 2 gusting 5 23.9
2016-Sep-26 10:33 045 0 gusting 4 22.8
2016-Sep-26 10:23 173 1 gusting 5 22.8
2016-Sep-26 10:13 135 1 gusting 2 22.8
2016-Sep-26 10:03 135 0 gusting 2 22.8
2016-Sep-26 09:53 230 1 gusting 2 22.2
2016-Sep-26 09:43 002 0 gusting 4 21.7
2016-Sep-26 09:33 222 0 gusting 2 21.7
2016-Sep-26 09:23 292 0 gusting 2 21.1
2016-Sep-26 09:13 152 0 gusting 4 21.7
2016-Sep-26 09:03 045 1 gusting 2 21.1
2016-Sep-26 08:53 090 0 gusting 4 20.6
2016-Sep-26 08:43 003 1 gusting 4 20.0
2016-Sep-26 08:33 045 1 gusting 5 20.0
2016-Sep-26 08:23 045 2 gusting 5 19.4
2016-Sep-26 08:13 171 1 gusting 4 19.4
2016-Sep-26 08:03 024 0 gusting 2 18.3